Location: Newark
(33.6333°S, 78.8500°W)
Time: 00:51:43
(UTC+00:00)

Tiros 1 despin weight - Pass Details

Date: 27 September 2019
Orbit: 594 x 643 km, 48.2° (Epoch: 16 October)

Event Time Altitude Azimuth Distance (km) Brightness Sun altitude
Rises 06:56:13 0° 227° (SW) 2,919 - -46.4°
Reaches altitude 10° 06:59:19 10° 206° (SSW) 2,021 - -45.9°
Maximum altitude 07:02:19 17° 165° (SSE) 1,631 - -45.5°
Drops below altitude 10° 07:05:20 10° 125° (SE) 2,035 - -45.1°
Exits shadow 07:07:24 - 109° (ESE) 2,613 ? -44.8°
Sets 07:08:27 0° 104° (ESE) 2,948 ? -44.6°
